Home   Weather   Gahanna   Past weeks
Flag for USA

Past Weather in Gahanna, Ohio, USA — Yesterday and Last 2 Weeks

Now
53 °F

Clear.


Feels Like: 53 °F
Forecast: 68 / 42 °F
Wind: 3 mph from Northeast

Location: John Glenn Columbus International Airport
Current Time: Sep 19, 2020 at 10:38:27 pm
Latest Report: Sep 19, 2020 at 9:51 pm
Visibility: 10 mi
Pressure30.33 "Hg
Humidity: 61%
Dew Point: 40 °F
Location of GahannaLocation

Past Weather in Gahanna — Graph

°F

Gahanna Temperature Yesterday

Maximum temperature yesterday: 66 °F (at 2:51 pm)
Minimum temperature yesterday: 48 °F (at 11:51 pm)
Average temperature yesterday: 58 °F

High & Low Weather Summary for the Past Weeks

 TemperatureHumidityPressure
High86 °F (Sep 8, 3:51 pm)100% (Sep 17, 7:51 am)30.38 "Hg (Sep 17, 7:51 am)
Low43 °F (Sep 19, 4:51 am)36% (Sep 5, 5:51 pm)29.84 "Hg (Sep 7, 4:51 pm)
Average67 °F74%30.13 "Hg
* Reported Sep 4 8:51 pm — Sep 19 8:51 pm, Gahanna. Weather by CustomWeather, © 2020

Note: Actual official high and low records may vary slightly from our data, if they occured in-between our weather recording intervals... More about our weather records

Gahanna Weather History for the Previous 24 Hours

Scroll right to see more
 ConditionsComfort  
Time TempWeatherWind HumidityBarometerVisibility
8:51 pm
Sat, Sep 19
54 °FClear.3 mph62%30.32 "Hg10 mi
7:51 pm59 °FClear.5 mph46%30.31 "Hg10 mi
6:51 pm62 °FSunny.6 mph41%30.31 "Hg10 mi
5:51 pm65 °FSunny.8 mph37%30.30 "Hg10 mi
4:51 pm65 °FSunny.7 mph37%30.31 "Hg10 mi
3:51 pm65 °FSunny.6 mph36%30.32 "Hg10 mi
2:51 pm64 °FSunny.6 mph40%30.33 "Hg10 mi
1:51 pm63 °FSunny.8 mph38%30.35 "Hg10 mi
12:51 pm61 °FSunny.7 mph41%30.37 "Hg10 mi
11:51 am58 °FSunny.14 mph44%30.38 "Hg10 mi
10:51 am56 °FSunny.12 mph47%30.38 "Hg10 mi
9:51 am54 °FSunny.13 mph53%30.38 "Hg10 mi
8:51 am49 °FSunny.6 mph66%30.37 "Hg10 mi
7:51 am43 °FSunny.3 mph86%30.35 "Hg10 mi
6:51 am43 °FClear.3 mph89%30.34 "Hg10 mi
5:51 am43 °FClear.6 mph89%30.33 "Hg10 mi
4:51 am43 °FClear.5 mph89%30.32 "Hg10 mi
3:51 am44 °FClear.6 mph85%30.32 "Hg10 mi
2:51 am45 °FClear.5 mph82%30.33 "Hg10 mi
1:51 am46 °FClear.6 mph79%30.32 "Hg10 mi
12:51 am48 °FClear.8 mph74%30.32 "Hg10 mi
11:51 pm
Fri, Sep 18
48 °FClear.8 mph74%30.31 "Hg10 mi
10:51 pm49 °FClear.7 mph71%30.29 "Hg10 mi
Weather by CustomWeather, © 2020

See weather overview